Location: Bluff Heights
(33.7692°N, 118.1592°W)
Time: 06:39:24
(UTC+00:00)

A-11 Canister half - All Passes

Search period start: 31 July 2021 00:00
Search period end: 10 August 2021 00:00
Orbit: 1513 x 1687 km, 47.2° (Epoch: 30 July)

Date Brightness Start Highest point End Pass type
(mag) Time Alt. Az. Time Alt. Az. Time Alt. Az.
31 Jul - 01:26:05 10° WSW 01:35:45 63° NNW 01:45:47 10° NE daylight
31 Jul - 03:33:23 10° WNW 03:42:31 38° N 03:51:50 10° ENE visible
31 Jul - 05:40:02 10° NW 05:49:46 48° NNE 05:59:31 10° E visible
31 Jul - 07:45:20 10° NW 07:55:31 77° SW 08:05:35 10° SE visible
31 Jul - 09:52:32 10° W 09:59:26 21° SW 10:06:16 10° SSW visible
31 Jul - 22:59:08 10° SSW 23:08:01 45° SE 23:17:13 10° ENE daylight
01 Aug - 01:03:05 10° WSW 01:12:45 66° NNW 01:22:48 10° NE daylight
01 Aug - 03:10:19 10° WNW 03:19:26 39° N 03:28:45 10° ENE visible
01 Aug - 05:17:04 10° NW 05:26:43 47° NNE 05:36:25 10° E visible
01 Aug - 07:22:21 10° NW 07:32:35 81° SW 07:42:41 10° SE visible
01 Aug - 09:29:15 10° WNW 09:36:34 23° SW 09:43:50 10° S visible
01 Aug - 22:36:26 10° SSW 22:45:08 41° SE 22:54:09 10° ENE daylight
02 Aug - 00:40:06 10° WSW 00:49:46 69° NNW 00:59:49 10° NE daylight
02 Aug - 02:47:15 10° WNW 02:56:21 39° N 03:05:41 10° ENE daylight
02 Aug - 04:54:04 10° NW 05:03:39 45° NNE 05:13:18 10° E visible
02 Aug - 06:59:23 10° NW 07:09:37 85° SW 07:19:46 10° SE visible
02 Aug - 09:06:02 10° WNW 09:13:43 25° SW 09:21:19 10° S visible
02 Aug - 22:13:45 10° SSW 22:22:16 38° SE 22:31:05 10° ENE daylight
03 Aug - 00:17:08 10° WSW 00:26:47 72° NNW 00:36:50 10° NE daylight
03 Aug - 02:24:10 10° WNW 02:33:16 39° N 02:42:37 10° ENE daylight
03 Aug - 04:31:05 10° NW 04:40:35 44° NNE 04:50:12 10° E visible
03 Aug - 06:36:25 10° NW 06:46:39 89° SW 06:56:50 10° SE visible
03 Aug - 08:42:50 10° WNW 08:50:50 27° SW 08:58:48 10° S visible
03 Aug - 21:51:06 10° S 21:59:24 36° SE 22:07:59 10° ENE daylight
03 Aug - 23:54:11 10° WSW 00:03:49 76° NW 00:13:51 10° NE daylight
04 Aug - 02:01:06 10° WNW 02:10:12 40° N 02:19:34 10° ENE daylight
04 Aug - 04:08:05 10° NW 04:17:32 43° NNE 04:27:05 10° E visible
04 Aug - 06:13:27 10° NW 06:23:41 87° NE 06:33:52 10° SE visible
04 Aug - 08:19:40 10° WNW 08:27:58 30° SW 08:36:13 10° S visible
04 Aug - 21:28:28 10° S 21:36:33 33° SE 21:44:53 10° ENE daylight
04 Aug - 23:31:14 10° WSW 23:40:51 79° NW 23:50:53 10° NE daylight
05 Aug - 01:38:01 10° W 01:47:08 41° NNW 01:56:32 10° NE daylight
05 Aug - 03:45:06 10° NW 03:54:28 42° NNE 04:03:58 10° E visible
05 Aug - 05:50:30 10° NW 06:00:43 83° NE 06:10:55 10° SE visible
05 Aug - 07:56:32 10° WNW 08:05:05 32° SW 08:13:36 10° S visible
05 Aug - 21:05:53 10° S 21:13:43 30° SE 21:21:45 10° ENE daylight
05 Aug - 23:08:19 10° SW 23:17:54 83° NW 23:27:55 10° NE daylight
06 Aug - 01:14:58 10° W 01:24:04 41° NNW 01:33:28 10° NE daylight
06 Aug - 03:22:06 10° NW 03:31:23 41° NNE 03:40:50 10° E visible
06 Aug - 05:27:32 10° NW 05:37:43 79° NE 05:47:56 10° ESE visible
06 Aug - 07:33:25 10° WNW 07:42:12 35° SW 07:50:57 10° S visible
06 Aug - 20:43:19 10° S 20:50:52 28° SE 20:58:36 10° ENE daylight
06 Aug - 22:45:24 10° SW 22:54:57 87° NW 23:04:56 10° NE daylight
07 Aug - 00:51:54 10° W 01:01:01 42° NNW 01:10:26 10° NE daylight
07 Aug - 02:59:05 10° WNW 03:08:18 40° N 03:17:42 10° ENE visible
07 Aug - 05:04:35 10° NW 05:14:45 76° NE 05:24:56 10° ESE visible
07 Aug - 07:10:20 10° WNW 07:19:19 37° SW 07:28:17 10° SSE visible
07 Aug - 20:20:48 10° S 20:28:01 25° SE 20:35:26 10° ENE daylight
07 Aug - 22:22:30 10° SW 22:32:01 89° SE 22:41:57 10° NE daylight
08 Aug - 00:28:50 10° W 00:37:58 43° NNW 00:47:25 10° NE daylight
08 Aug - 02:36:04 10° WNW 02:45:14 39° N 02:54:35 10° ENE daylight
08 Aug - 04:41:38 10° NW 04:51:45 72° NNE 05:01:56 10° ESE visible
08 Aug - 06:47:16 10° WNW 06:56:26 40° SW 07:05:35 10° SSE visible
08 Aug - 19:58:19 10° S 20:05:12 23° SE 20:12:14 10° ENE daylight
08 Aug - 21:59:37 10° SW 22:09:05 85° SE 22:18:58 10° NE daylight
09 Aug - 00:05:47 10° W 00:14:55 44° NNW 00:24:23 10° NE daylight
09 Aug - 02:13:04 10° WNW 02:22:09 39° N 02:31:28 10° ENE daylight
09 Aug - 04:18:42 10° NW 04:28:45 69° NNE 04:38:55 10° ESE visible
09 Aug - 06:24:13 10° WNW 06:33:32 43° SW 06:42:51 10° SSE visible
09 Aug - 19:35:52 10° S 19:42:22 21° SE 19:48:58 10° E daylight
09 Aug - 21:36:45 10° SW 21:46:10 81° SE 21:56:00 10° NE daylight
